KAL504 LFPG-RKSI

Flight info

Callsign KAL504
Flight time N/A
Altitude 35000
Route LANVI DCT BEGAR DCT TRA DCT GAMSA N871 GAPTO T23 BIRGI DCT SETAL DCT GOTAR DCT MOPUG DCT LUGEB DCT UDROS UM859 KARDE UN644 ROLIN DCT TETRO DCT BARAD M747 SUBUT T916 BALUN/K0882F350 T916 PIGAL M610 RULAD/K0874S1065 A343 POSOT B215 FKG W188 LIKMI W270 DKO W69 HUR B339 LADIX W34 VAPGU W100 ORAVA W201 UNSEK A326 DONVO G597 AGAVO/N0477F350 Y644 REBIT REBIT1Y
Aircraft A388/J-SADE2E3FGHIJ3J4J5M1RWXY/LB1D1

Departure

Time 2026-05-08 00:07
Airport Charles de Gaulle International Airport (LFPG)

Arrival

Time N/A
Airport Incheon International Airport (RKSI)
Time Latitude Longitude Altitude Speed Heading
2026-05-07 23:41 49.00263 2.58991 359 ft 0 kts 85°
2026-05-07 23:54 49.00263 2.58989 359 ft 1 kts 85°
2026-05-07 23:54 49.00262 2.58965 367 ft 3 kts 88°
2026-05-07 23:54 49.00261 2.58936 368 ft 3 kts 85°
2026-05-07 23:54 49.00261 2.58907 368 ft 3 kts 109°
2026-05-07 23:55 49.00270 2.58884 368 ft 3 kts 146°
2026-05-07 23:55 49.00288 2.58871 367 ft 3 kts 171°
2026-05-07 23:55 49.00308 2.58868 365 ft 3 kts 177°
2026-05-07 23:55 49.00320 2.58867 359 ft 0 kts 174°
2026-05-07 23:57 49.00319 2.58867 361 ft 1 kts 174°
2026-05-07 23:57 49.00299 2.58870 359 ft 5 kts 174°
2026-05-07 23:58 49.00255 2.58876 364 ft 8 kts 175°
2026-05-07 23:58 49.00193 2.58885 363 ft 10 kts 175°
2026-05-07 23:58 49.00119 2.58893 364 ft 11 kts 176°
2026-05-07 23:58 49.00063 2.58878 368 ft 8 kts 218°
2026-05-07 23:59 49.00033 2.58801 360 ft 10 kts 243°
2026-05-07 23:59 48.99981 2.58739 364 ft 10 kts 208°
2026-05-07 23:59 48.99940 2.58650 364 ft 11 kts 257°
2026-05-07 23:59 48.99932 2.58520 359 ft 13 kts 266°
2026-05-08 00:00 48.99924 2.58370 364 ft 15 kts 265°
2026-05-08 00:00 48.99915 2.58205 366 ft 16 kts 265°
2026-05-08 00:00 48.99905 2.58028 362 ft 17 kts 265°
2026-05-08 00:00 48.99896 2.57841 360 ft 18 kts 265°
2026-05-08 00:01 48.99886 2.57645 366 ft 19 kts 265°
2026-05-08 00:01 48.99875 2.57443 365 ft 19 kts 266°
2026-05-08 00:01 48.99865 2.57237 365 ft 20 kts 265°
2026-05-08 00:01 48.99854 2.57027 364 ft 20 kts 265°
2026-05-08 00:02 48.99843 2.56824 367 ft 19 kts 265°
2026-05-08 00:02 48.99832 2.56625 359 ft 19 kts 265°
2026-05-08 00:02 48.99821 2.56419 359 ft 19 kts 265°
2026-05-08 00:02 48.99812 2.56253 365 ft 16 kts 265°
2026-05-08 00:03 48.99804 2.56096 366 ft 12 kts 265°
2026-05-08 00:03 48.99798 2.55974 365 ft 12 kts 266°
2026-05-08 00:03 48.99779 2.55860 368 ft 10 kts 241°
2026-05-08 00:03 48.99738 2.55814 364 ft 5 kts 188°
2026-05-08 00:04 48.99734 2.55813 363 ft 0 kts 185°
2026-05-08 00:04 48.99730 2.55812 361 ft 2 kts 184°
2026-05-08 00:04 48.99702 2.55811 359 ft 6 kts 176°
2026-05-08 00:05 48.99653 2.55821 365 ft 7 kts 171°
2026-05-08 00:05 48.99608 2.55856 366 ft 7 kts 121°
2026-05-08 00:05 48.99602 2.55892 365 ft 0 kts 85°
2026-05-08 00:06 48.99611 2.56057 361 ft 47 kts 85°
2026-05-08 00:06 48.99658 2.56935 365 ft 116 kts 85°
2026-05-08 00:06 48.99738 2.58424 360 ft 162 kts 85°
2026-05-08 00:06 48.99825 2.60217 543 ft 177 kts 85°
2026-05-08 00:07 48.99912 2.62098 1071 ft 173 kts 85°
2026-05-08 00:07 48.99990 2.63922 1613 ft 171 kts 85°
2026-05-08 00:07 49.00065 2.65703 2070 ft 172 kts 86°
2026-05-08 00:07 49.00149 2.67613 2227 ft 188 kts 84°
2026-05-08 00:08 49.00274 2.69647 2447 ft 198 kts 84°
2026-05-08 00:08 49.00391 2.71795 2595 ft 208 kts 85°
2026-05-08 00:08 49.00511 2.74027 2736 ft 217 kts 84°
2026-05-08 00:08 49.00654 2.76384 2817 ft 235 kts 84°
2026-05-08 00:09 49.00730 2.78968 3049 ft 253 kts 95°
2026-05-08 00:09 49.00466 2.81660 3446 ft 261 kts 99°
2026-05-08 00:09 49.00149 2.84397 4120 ft 263 kts 100°
2026-05-08 00:09 48.99826 2.87153 4798 ft 266 kts 100°
2026-05-08 00:10 48.99506 2.89937 5462 ft 269 kts 100°
2026-05-08 00:10 48.99193 2.92719 6118 ft 271 kts 100°
2026-05-08 00:10 48.98875 2.95565 6764 ft 274 kts 100°
2026-05-08 00:10 48.98582 2.98453 7365 ft 278 kts 98°
2026-05-08 00:11 48.98344 3.01390 7977 ft 281 kts 97°
2026-05-08 00:11 48.98116 3.04371 8604 ft 285 kts 97°
2026-05-08 00:11 48.97879 3.07386 9216 ft 289 kts 98°
2026-05-08 00:11 48.97631 3.10444 9804 ft 294 kts 98°
2026-05-08 00:12 48.97373 3.13546 10315 ft 300 kts 98°
2026-05-08 00:12 48.97097 3.16797 10484 ft 318 kts 98°
2026-05-08 00:12 48.96806 3.20212 10640 ft 334 kts 98°
2026-05-08 00:12 48.96505 3.23743 10887 ft 345 kts 98°
2026-05-08 00:13 48.96191 3.27424 11422 ft 348 kts 98°
2026-05-08 00:13 48.95882 3.31047 11925 ft 351 kts 98°
2026-05-08 00:13 48.95565 3.34745 12466 ft 354 kts 98°
2026-05-08 00:13 48.95248 3.38414 12978 ft 357 kts 98°
2026-05-08 00:14 48.94918 3.42229 13523 ft 360 kts 98°
2026-05-08 00:14 48.94587 3.46028 14013 ft 363 kts 98°
2026-05-08 00:14 48.94254 3.49844 14484 ft 365 kts 98°
2026-05-08 00:14 48.93917 3.53689 14949 ft 368 kts 98°
2026-05-08 00:15 48.93596 3.57566 15403 ft 371 kts 96°
2026-05-08 00:15 48.93381 3.61491 15856 ft 374 kts 95°
2026-05-08 00:15 48.93206 3.65398 16299 ft 377 kts 94°
2026-05-08 00:15 48.93024 3.69386 16745 ft 379 kts 95°
2026-05-08 00:16 48.92827 3.73399 17192 ft 382 kts 95°
2026-05-08 00:16 48.92618 3.77440 17630 ft 385 kts 95°
2026-05-08 00:16 48.92400 3.81514 18065 ft 388 kts 95°
2026-05-08 00:16 48.92178 3.85609 18471 ft 390 kts 95°
2026-05-08 00:17 48.91952 3.89729 18859 ft 392 kts 95°
2026-05-08 00:17 48.91723 3.93870 19232 ft 394 kts 95°
2026-05-08 00:17 48.91492 3.98034 19617 ft 396 kts 96°
2026-05-08 00:17 48.91259 4.02219 19975 ft 398 kts 96°
2026-05-08 00:18 48.91022 4.06421 20347 ft 400 kts 96°
2026-05-08 00:18 48.90787 4.10591 20706 ft 402 kts 96°
2026-05-08 00:18 48.90545 4.14831 21068 ft 404 kts 96°
2026-05-08 00:18 48.90261 4.19090 21413 ft 406 kts 100°
2026-05-08 00:19 48.89588 4.23253 21773 ft 406 kts 110°
2026-05-08 00:19 48.88476 4.27197 22111 ft 406 kts 120°
2026-05-08 00:19 48.87083 4.30936 22452 ft 408 kts 121°
2026-05-08 00:19 48.85691 4.34711 22816 ft 410 kts 121°
2026-05-08 00:20 48.84304 4.38508 23139 ft 413 kts 121°
2026-05-08 00:20 48.82907 4.42330 23453 ft 415 kts 121°
2026-05-08 00:20 48.81504 4.46160 23770 ft 417 kts 121°
2026-05-08 00:20 48.80107 4.49964 24066 ft 419 kts 121°
2026-05-08 00:21 48.78687 4.53823 24351 ft 420 kts 121°
2026-05-08 00:21 48.77256 4.57704 24651 ft 422 kts 121°
2026-05-08 00:21 48.75819 4.61595 24945 ft 424 kts 121°
2026-05-08 00:21 48.74375 4.65498 25251 ft 426 kts 121°
2026-05-08 00:22 48.72923 4.69416 25548 ft 428 kts 121°
2026-05-08 00:22 48.71465 4.73348 25859 ft 429 kts 121°
2026-05-08 00:22 48.69998 4.77296 26174 ft 431 kts 121°
2026-05-08 00:22 48.68525 4.81255 26487 ft 434 kts 121°
2026-05-08 00:23 48.67040 4.85240 26812 ft 436 kts 121°
2026-05-08 00:23 48.65546 4.89242 27140 ft 438 kts 121°
2026-05-08 00:23 48.64043 4.93263 27482 ft 440 kts 121°
2026-05-08 00:23 48.62530 4.97304 27814 ft 443 kts 121°
2026-05-08 00:24 48.61029 5.01307 28159 ft 445 kts 121°
2026-05-08 00:24 48.59497 5.05388 28511 ft 447 kts 121°
2026-05-08 00:24 48.57958 5.09478 28832 ft 450 kts 121°
2026-05-08 00:24 48.56408 5.13593 29159 ft 452 kts 121°
2026-05-08 00:25 48.54846 5.17735 29505 ft 455 kts 121°
2026-05-08 00:25 48.53275 5.21892 29817 ft 458 kts 121°
2026-05-08 00:25 48.51693 5.26071 30134 ft 461 kts 121°
2026-05-08 00:25 48.50098 5.30280 30446 ft 463 kts 121°
2026-05-08 00:26 48.48495 5.34502 30729 ft 465 kts 122°
2026-05-08 00:26 48.46880 5.38750 31010 ft 468 kts 122°
2026-05-08 00:26 48.45258 5.43008 31298 ft 470 kts 122°
2026-05-08 00:26 48.43646 5.47232 31574 ft 473 kts 122°
2026-05-08 00:27 48.42001 5.51538 31858 ft 475 kts 122°
2026-05-08 00:27 48.40346 5.55860 32133 ft 478 kts 122°
2026-05-08 00:27 48.38681 5.60204 32396 ft 480 kts 122°
2026-05-08 00:27 48.37005 5.64568 32606 ft 484 kts 122°
2026-05-08 00:28 48.35314 5.68964 32875 ft 486 kts 122°
2026-05-08 00:28 48.33617 5.73371 33148 ft 489 kts 122°
2026-05-08 00:28 48.31929 5.77819 33406 ft 492 kts 119°
2026-05-08 00:28 48.30539 5.82534 33670 ft 496 kts 111°
2026-05-08 00:29 48.29475 5.87402 33912 ft 499 kts 109°
2026-05-08 00:29 48.28410 5.92379 34134 ft 502 kts 109°
2026-05-08 00:29 48.27332 5.97366 34405 ft 503 kts 109°
2026-05-08 00:29 48.26245 6.02354 34611 ft 505 kts 109°
2026-05-08 00:30 48.25141 6.07395 34810 ft 508 kts 109°
2026-05-08 00:30 48.24034 6.12435 35030 ft 511 kts 110°
2026-05-08 00:30 48.21844 6.22382 35049 ft 492 kts 110°
2026-05-08 00:31 48.19686 6.32124 35057 ft 495 kts 110°
2026-05-08 00:31 48.17522 6.41849 35043 ft 495 kts 110°
2026-05-08 00:32 48.15334 6.51645 35049 ft 496 kts 110°
2026-05-08 00:32 48.13136 6.61435 35051 ft 496 kts 110°
2026-05-08 00:33 48.10932 6.71209 35052 ft 496 kts 110°
2026-05-08 00:33 48.08720 6.80977 35054 ft 496 kts 110°
2026-05-08 00:34 48.06500 6.90731 35048 ft 496 kts 110°
2026-05-08 00:34 48.04283 7.00425 35052 ft 496 kts 110°
2026-05-08 00:35 48.02045 7.10171 35041 ft 496 kts 110°
2026-05-08 00:35 47.99798 7.19910 35036 ft 496 kts 110°
2026-05-08 00:36 47.97543 7.29640 35033 ft 496 kts 111°
2026-05-08 00:36 47.95279 7.39363 35033 ft 496 kts 111°
2026-05-08 00:37 47.93020 7.49023 35035 ft 497 kts 111°
2026-05-08 00:38 47.89562 7.63580 35028 ft 497 kts 112°
2026-05-08 00:38 47.87104 7.73194 35028 ft 497 kts 112°
2026-05-08 00:39 47.84641 7.82821 35036 ft 498 kts 112°
2026-05-08 00:39 47.82201 7.92384 35045 ft 498 kts 112°
2026-05-08 00:40 47.79732 8.02035 35043 ft 499 kts 112°
2026-05-08 00:40 47.77256 8.11668 35045 ft 499 kts 112°
2026-05-08 00:41 47.74770 8.21302 35048 ft 499 kts 113°
2026-05-08 00:41 47.72274 8.30933 35050 ft 500 kts 113°
2026-05-08 00:42 47.69784 8.40500 35050 ft 500 kts 113°
2026-05-08 00:42 47.67381 8.50168 35037 ft 500 kts 110°
2026-05-08 00:43 47.65231 8.59988 35040 ft 501 kts 110°
2026-05-08 00:43 47.63043 8.69790 35041 ft 501 kts 110°
2026-05-08 00:44 47.60814 8.79586 35043 ft 501 kts 110°
2026-05-08 00:44 47.58574 8.89357 35043 ft 501 kts 111°
2026-05-08 00:45 47.56339 8.99061 35046 ft 502 kts 111°
2026-05-08 00:45 47.54078 9.08836 35046 ft 502 kts 111°
2026-05-08 00:46 47.51811 9.18597 35048 ft 502 kts 111°
2026-05-08 00:46 47.49535 9.28350 35042 ft 502 kts 111°
2026-05-08 00:47 47.47248 9.38106 35051 ft 502 kts 111°
2026-05-08 00:47 47.44969 9.47786 35054 ft 502 kts 111°
2026-05-08 00:48 47.42666 9.57521 35054 ft 502 kts 111°
2026-05-08 00:48 47.40575 9.67203 35036 ft 505 kts 104°
2026-05-08 00:49 47.39258 9.77393 35037 ft 506 kts 102°
2026-05-08 00:49 47.37934 9.87589 35041 ft 506 kts 102°
2026-05-08 00:50 47.36603 9.97710 35065 ft 506 kts 103°
2026-05-08 00:50 47.35254 10.07887 35053 ft 506 kts 103°
2026-05-08 00:51 47.33893 10.18073 35059 ft 506 kts 103°
2026-05-08 00:51 47.33436 10.23205 35058 ft 508 kts 92°
2026-05-08 00:51 47.33631 10.28403 35057 ft 508 kts 81°
2026-05-08 00:51 47.34485 10.33454 35054 ft 508 kts 69°
2026-05-08 00:52 47.35969 10.38171 35049 ft 506 kts 58°
2026-05-08 00:52 47.38968 10.45586 35039 ft 506 kts 59°
2026-05-08 00:53 47.42143 10.56738 35045 ft 509 kts 69°
2026-05-08 00:53 47.44561 10.66554 35047 ft 509 kts 69°
2026-05-08 00:54 47.45955 10.74979 35058 ft 510 kts 84°
2026-05-08 00:54 47.45685 10.85396 35055 ft 508 kts 103°
2026-05-08 00:55 47.44369 10.95638 35048 ft 508 kts 102°
2026-05-08 00:55 47.42869 11.07585 35058 ft 509 kts 102°
2026-05-08 00:56 47.41772 11.16194 35064 ft 510 kts 102°
2026-05-08 00:56 47.40456 11.26420 35101 ft 510 kts 102°
2026-05-08 00:57 47.39120 11.36715 35096 ft 511 kts 102°
2026-05-08 00:57 47.38146 11.47118 35100 ft 513 kts 97°
2026-05-08 00:58 47.37390 11.57586 35100 ft 513 kts 97°
2026-05-08 00:58 47.36617 11.67981 35095 ft 513 kts 97°
2026-05-08 00:59 47.35826 11.78454 35078 ft 514 kts 97°
2026-05-08 00:59 47.35039 11.88932 35074 ft 514 kts 97°
2026-05-08 01:00 47.34377 11.99433 35078 ft 515 kts 94°
2026-05-08 01:00 47.34026 12.09974 35080 ft 515 kts 94°
2026-05-08 01:01 47.33632 12.20517 35083 ft 515 kts 94°
2026-05-08 01:01 47.33194 12.30982 35087 ft 515 kts 95°
2026-05-08 01:02 47.32737 12.41508 35086 ft 515 kts 95°
2026-05-08 01:02 47.32270 12.52046 35090 ft 515 kts 95°
2026-05-08 01:03 47.31793 12.62592 35075 ft 516 kts 94°
2026-05-08 01:03 47.31310 12.73081 35079 ft 517 kts 95°
2026-05-08 01:04 47.30813 12.83649 35081 ft 517 kts 95°
2026-05-08 01:04 47.30307 12.94216 35083 ft 517 kts 95°
2026-05-08 01:05 47.29790 13.04789 35081 ft 517 kts 95°
2026-05-08 01:05 47.29264 13.15359 35087 ft 518 kts 95°
2026-05-08 01:06 47.28731 13.25855 35088 ft 518 kts 95°
2026-05-08 01:06 47.28185 13.36432 35078 ft 518 kts 95°
2026-05-08 01:07 47.27629 13.47007 35080 ft 518 kts 95°
2026-05-08 01:07 47.27063 13.57573 35087 ft 518 kts 95°
2026-05-08 01:08 47.26492 13.68058 35087 ft 518 kts 95°
2026-05-08 01:08 47.25908 13.78624 35084 ft 518 kts 96°
2026-05-08 01:09 47.25313 13.89182 35086 ft 518 kts 96°
2026-05-08 01:09 47.24709 13.99737 35091 ft 518 kts 96°
2026-05-08 01:10 47.24094 14.10305 35096 ft 518 kts 96°
2026-05-08 01:10 47.23475 14.20794 35092 ft 518 kts 96°
2026-05-08 01:11 47.22562 14.31285 35094 ft 517 kts 101°
2026-05-08 01:11 47.21398 14.41728 35097 ft 517 kts 101°
2026-05-08 01:12 47.20246 14.52164 35094 ft 517 kts 101°
2026-05-08 01:12 47.19073 14.62600 35094 ft 517 kts 101°
2026-05-08 01:13 47.17897 14.72946 35093 ft 517 kts 101°
2026-05-08 01:13 47.16702 14.83370 35096 ft 517 kts 101°
2026-05-08 01:14 47.15496 14.93799 35097 ft 518 kts 101°
2026-05-08 01:14 47.14280 15.04229 35086 ft 518 kts 101°
2026-05-08 01:15 47.13063 15.14585 35088 ft 518 kts 101°
2026-05-08 01:15 47.11826 15.25016 35084 ft 519 kts 102°
2026-05-08 01:16 47.10581 15.35444 35075 ft 519 kts 102°
2026-05-08 01:16 47.09326 15.45866 35076 ft 518 kts 102°
2026-05-08 01:17 47.08061 15.56281 35079 ft 519 kts 102°
2026-05-08 01:17 47.06796 15.66621 35077 ft 519 kts 102°
2026-05-08 01:18 47.05513 15.77025 35076 ft 519 kts 102°
2026-05-08 01:18 47.04220 15.87432 35070 ft 518 kts 102°
2026-05-08 01:19 47.02928 15.97744 35065 ft 518 kts 103°
2026-05-08 01:19 47.01616 16.08136 35063 ft 518 kts 103°
2026-05-08 01:20 47.00296 16.18521 35062 ft 518 kts 103°
2026-05-08 01:20 46.98725 16.28804 35060 ft 517 kts 106°
2026-05-08 01:21 46.97036 16.39039 35067 ft 517 kts 106°
2026-05-08 01:21 46.95365 16.49206 35067 ft 517 kts 106°
2026-05-08 01:22 46.93664 16.59438 35056 ft 517 kts 106°
2026-05-08 01:22 46.91952 16.69639 35067 ft 516 kts 107°
2026-05-08 01:23 46.90228 16.79839 35058 ft 516 kts 107°
2026-05-08 01:23 46.88507 16.89958 35059 ft 516 kts 107°
2026-05-08 01:24 46.86767 17.00135 35065 ft 516 kts 107°
2026-05-08 01:24 46.85018 17.10305 35058 ft 516 kts 107°
2026-05-08 01:25 46.83262 17.20460 35056 ft 516 kts 107°
2026-05-08 01:25 46.81507 17.30545 35058 ft 516 kts 107°
2026-05-08 01:26 46.79732 17.40693 35053 ft 516 kts 107°
2026-05-08 01:26 46.77951 17.50814 35048 ft 515 kts 108°
2026-05-08 01:27 46.76159 17.60942 35048 ft 515 kts 108°
2026-05-08 01:27 46.74371 17.70984 35045 ft 515 kts 108°
2026-05-08 01:28 46.72567 17.81069 35046 ft 514 kts 108°
2026-05-08 01:28 46.70750 17.91165 35043 ft 514 kts 108°
2026-05-08 01:29 46.68929 18.01226 35040 ft 514 kts 108°
2026-05-08 01:29 46.67111 18.11219 35039 ft 514 kts 108°
2026-05-08 01:30 46.65275 18.21257 35046 ft 513 kts 108°
2026-05-08 01:30 46.63432 18.31276 35043 ft 512 kts 108°
2026-05-08 01:31 46.61580 18.41289 35044 ft 512 kts 108°
2026-05-08 01:31 46.59722 18.51284 35019 ft 512 kts 109°
2026-05-08 01:32 46.57869 18.61195 35047 ft 511 kts 109°
2026-05-08 01:32 46.55997 18.71154 35044 ft 511 kts 109°
2026-05-08 01:33 46.54117 18.81104 35045 ft 511 kts 109°
2026-05-08 01:33 46.52230 18.91041 35053 ft 510 kts 109°
2026-05-08 01:34 46.50351 19.00886 35053 ft 509 kts 109°
2026-05-08 01:34 46.48451 19.10784 35040 ft 509 kts 109°
2026-05-08 01:35 46.46544 19.20671 35041 ft 509 kts 109°
2026-05-08 01:35 46.44630 19.30544 35044 ft 508 kts 109°
2026-05-08 01:36 46.42709 19.40396 35039 ft 508 kts 109°
2026-05-08 01:36 46.40796 19.50164 35042 ft 507 kts 109°
2026-05-08 01:37 46.38860 19.59998 35043 ft 507 kts 109°
2026-05-08 01:37 46.36918 19.69812 35040 ft 506 kts 109°
2026-05-08 01:38 46.34971 19.79599 35040 ft 506 kts 109°
2026-05-08 01:38 46.33030 19.89310 35035 ft 506 kts 110°
2026-05-08 01:39 46.31065 19.99094 35038 ft 506 kts 110°
2026-05-08 01:39 46.29093 20.08865 35035 ft 506 kts 110°
2026-05-08 01:40 46.27114 20.18621 35031 ft 506 kts 110°
2026-05-08 01:40 46.25139 20.28309 35033 ft 506 kts 110°
2026-05-08 01:41 46.23142 20.38057 35025 ft 506 kts 110°
2026-05-08 01:41 46.21140 20.47782 35041 ft 505 kts 110°
2026-05-08 01:42 46.19131 20.57500 35037 ft 505 kts 110°
2026-05-08 01:42 46.17132 20.67151 35037 ft 505 kts 110°
2026-05-08 01:43 46.14786 20.76656 35029 ft 502 kts 115°
2026-05-08 01:43 46.12257 20.86053 35030 ft 503 kts 114°
2026-05-08 01:44 46.09756 20.95451 35037 ft 503 kts 115°
2026-05-08 01:44 46.07242 21.04850 35037 ft 503 kts 115°
2026-05-08 01:45 46.04733 21.14182 35049 ft 503 kts 115°
2026-05-08 01:45 46.02197 21.23566 35049 ft 503 kts 115°
2026-05-08 01:46 45.99649 21.32936 35047 ft 503 kts 115°
2026-05-08 01:46 45.97093 21.42299 35054 ft 503 kts 115°
2026-05-08 01:47 45.94544 21.51596 35025 ft 504 kts 115°
2026-05-08 01:47 45.91968 21.60957 35027 ft 504 kts 115°
2026-05-08 01:48 45.88082 21.75010 35038 ft 505 kts 115°
2026-05-08 01:48 45.85484 21.84358 35041 ft 505 kts 115°
2026-05-08 01:49 45.82888 21.93665 35048 ft 506 kts 115°
2026-05-08 01:49 45.80269 22.03019 35049 ft 506 kts 115°
2026-05-08 01:50 45.77641 22.12368 35067 ft 506 kts 115°
2026-05-08 01:50 45.75002 22.21720 35061 ft 506 kts 115°
2026-05-08 01:51 45.72373 22.31003 35067 ft 507 kts 115°
2026-05-08 01:51 45.69716 22.40348 35071 ft 507 kts 115°
2026-05-08 01:52 45.67051 22.49681 35059 ft 507 kts 115°
2026-05-08 01:52 45.64374 22.59025 35057 ft 508 kts 115°
2026-05-08 01:53 45.61707 22.68300 35064 ft 508 kts 115°
2026-05-08 01:53 45.59012 22.77637 35063 ft 509 kts 115°
2026-05-08 01:54 45.56310 22.86959 35066 ft 508 kts 115°
2026-05-08 01:54 45.53618 22.96216 35076 ft 508 kts 115°
2026-05-08 01:55 45.50905 23.05508 35076 ft 508 kts 115°
2026-05-08 01:55 45.48180 23.14808 35080 ft 508 kts 115°
2026-05-08 01:56 45.45451 23.24085 35091 ft 508 kts 115°
2026-05-08 01:56 45.42718 23.33342 35098 ft 508 kts 115°
2026-05-08 01:57 45.39992 23.42540 35090 ft 508 kts 115°
2026-05-08 01:57 45.37240 23.51793 35096 ft 508 kts 116°
2026-05-08 01:58 45.34484 23.61027 35108 ft 508 kts 116°
2026-05-08 01:58 45.31717 23.70262 35102 ft 507 kts 116°
2026-05-08 01:59 45.28964 23.79417 35090 ft 507 kts 116°
2026-05-08 01:59 45.26188 23.88615 35096 ft 507 kts 116°
2026-05-08 02:00 45.23406 23.97798 35085 ft 506 kts 116°
2026-05-08 02:00 45.20621 24.06960 35080 ft 506 kts 116°
2026-05-08 02:01 45.17845 24.16059 35048 ft 507 kts 116°
2026-05-08 02:01 45.15037 24.25226 35040 ft 507 kts 116°
2026-05-08 02:02 45.12221 24.34393 35040 ft 508 kts 116°
2026-05-08 02:02 45.09396 24.43555 35039 ft 508 kts 116°
2026-05-08 02:03 45.06577 24.52660 35075 ft 508 kts 115°
2026-05-08 02:03 45.03735 24.61811 35065 ft 508 kts 115°
2026-05-08 02:04 45.00886 24.70952 35066 ft 508 kts 116°
2026-05-08 02:04 44.98031 24.80078 35065 ft 508 kts 116°
2026-05-08 02:05 44.95165 24.89205 35063 ft 508 kts 116°
2026-05-08 02:05 44.92314 24.98257 35065 ft 508 kts 116°
2026-05-08 02:06 44.89437 25.07356 35060 ft 508 kts 116°
2026-05-08 02:06 44.86553 25.16448 35064 ft 508 kts 116°
2026-05-08 02:07 44.83664 25.25521 35067 ft 507 kts 116°
2026-05-08 02:07 44.80790 25.34520 35057 ft 507 kts 116°
2026-05-08 02:08 44.77892 25.43559 35050 ft 506 kts 116°
2026-05-08 02:08 44.74991 25.52577 35055 ft 505 kts 116°
2026-05-08 02:09 44.72087 25.61575 35054 ft 505 kts 116°
2026-05-08 02:09 44.69197 25.70496 35050 ft 504 kts 116°
2026-05-08 02:10 44.66286 25.79453 35041 ft 504 kts 116°
2026-05-08 02:10 44.63376 25.88373 35051 ft 503 kts 116°
2026-05-08 02:11 44.60480 25.97226 35050 ft 503 kts 116°
2026-05-08 02:11 44.57554 26.06138 35047 ft 502 kts 116°
2026-05-08 02:12 44.54628 26.15020 35065 ft 501 kts 116°
2026-05-08 02:12 44.51699 26.23881 35059 ft 500 kts 116°
2026-05-08 02:13 44.48769 26.32715 35044 ft 500 kts 116°
2026-05-08 02:13 44.45856 26.41469 35039 ft 499 kts 116°
2026-05-08 02:14 44.42923 26.50258 35050 ft 498 kts 116°
2026-05-08 02:14 44.39984 26.59030 35046 ft 497 kts 116°
2026-05-08 02:15 44.37047 26.67770 35030 ft 497 kts 116°
2026-05-08 02:15 44.34122 26.76445 35024 ft 497 kts 116°
2026-05-08 02:16 44.31171 26.85171 35023 ft 497 kts 116°
2026-05-08 02:16 44.28215 26.93881 35022 ft 497 kts 116°
2026-05-08 02:17 44.25253 27.02583 35022 ft 497 kts 116°
2026-05-08 02:17 44.22306 27.11211 35048 ft 496 kts 116°
2026-05-08 02:18 44.19335 27.19882 35041 ft 495 kts 116°
2026-05-08 02:18 44.16361 27.28533 35044 ft 495 kts 116°
2026-05-08 02:19 44.13382 27.37174 35056 ft 494 kts 117°
2026-05-08 02:19 44.10424 27.45726 35062 ft 493 kts 117°
2026-05-08 02:20 44.07442 27.54318 35060 ft 493 kts 117°
2026-05-08 02:20 44.04455 27.62896 35056 ft 493 kts 117°
2026-05-08 02:21 44.01469 27.71449 35067 ft 492 kts 117°
2026-05-08 02:21 43.98500 27.79924 35062 ft 491 kts 117°
2026-05-08 02:22 43.95507 27.88439 35058 ft 490 kts 117°
2026-05-08 02:22 43.92511 27.96938 35055 ft 490 kts 117°
2026-05-08 02:23 43.89516 28.05408 35065 ft 489 kts 117°
2026-05-08 02:23 43.86537 28.13808 35061 ft 488 kts 117°
2026-05-08 02:24 43.83537 28.22245 35058 ft 488 kts 117°
2026-05-08 02:24 43.80538 28.30666 35052 ft 488 kts 117°
2026-05-08 02:25 43.77532 28.39084 35055 ft 488 kts 117°
2026-05-08 02:25 43.74531 28.47425 35054 ft 487 kts 118°
2026-05-08 02:26 43.71102 28.55480 35055 ft 486 kts 124°
2026-05-08 02:26 43.67442 28.63341 35059 ft 486 kts 123°
2026-05-08 02:27 43.63819 28.71228 35065 ft 487 kts 124°
2026-05-08 02:27 43.60202 28.79057 35074 ft 487 kts 124°
2026-05-08 02:28 43.56549 28.86929 35066 ft 488 kts 124°
2026-05-08 02:28 43.52885 28.94799 35077 ft 488 kts 124°
2026-05-08 02:29 43.49210 29.02674 35078 ft 489 kts 124°
2026-05-08 02:29 43.45548 29.10501 35081 ft 489 kts 124°
2026-05-08 02:30 43.41853 29.18375 35079 ft 490 kts 124°
2026-05-08 02:30 43.38148 29.26252 35082 ft 491 kts 124°
2026-05-08 02:31 43.34428 29.34138 35089 ft 492 kts 124°
2026-05-08 02:31 43.30724 29.41968 35086 ft 493 kts 124°
2026-05-08 02:32 43.26985 29.49853 35092 ft 493 kts 124°
2026-05-08 02:32 43.23235 29.57741 35096 ft 494 kts 124°
2026-05-08 02:33 43.19473 29.65631 35105 ft 494 kts 124°
2026-05-08 02:33 43.15727 29.73467 35108 ft 495 kts 124°
2026-05-08 02:34 43.11952 29.81343 35113 ft 495 kts 124°
2026-05-08 02:34 43.08167 29.89220 35120 ft 495 kts 124°
2026-05-08 02:35 43.04374 29.97088 35109 ft 496 kts 124°
2026-05-08 02:35 43.00599 30.04901 35110 ft 496 kts 124°
2026-05-08 02:36 42.96794 30.12757 35115 ft 496 kts 124°
2026-05-08 02:36 42.92982 30.20603 35107 ft 496 kts 124°
2026-05-08 02:37 42.89160 30.28450 35108 ft 497 kts 124°
2026-05-08 02:37 42.85358 30.36238 35112 ft 497 kts 124°
2026-05-08 02:38 42.81526 30.44067 35113 ft 497 kts 124°
2026-05-08 02:38 42.77684 30.51892 35106 ft 497 kts 123°
2026-05-08 02:39 42.74471 30.60189 35105 ft 496 kts 109°
2026-05-08 02:39 42.72891 30.69213 35106 ft 494 kts 96°
2026-05-08 02:40 42.71987 30.78478 35106 ft 494 kts 96°
2026-05-08 02:40 42.71042 30.87738 35110 ft 494 kts 96°
2026-05-08 02:41 42.70087 30.96994 35110 ft 495 kts 96°
2026-05-08 02:41 42.69131 31.06192 35111 ft 495 kts 96°
2026-05-08 02:42 42.68161 31.15449 35114 ft 495 kts 96°
2026-05-08 02:42 42.67183 31.24713 35114 ft 495 kts 96°
2026-05-08 02:43 42.66198 31.33975 35114 ft 495 kts 96°
2026-05-08 02:43 42.65212 31.43173 35108 ft 496 kts 96°
2026-05-08 02:44 42.64209 31.52449 35102 ft 497 kts 95°
2026-05-08 02:44 42.63199 31.61729 35104 ft 497 kts 96°
2026-05-08 02:45 42.62182 31.71002 35111 ft 497 kts 96°
2026-05-08 02:45 42.61161 31.80231 35110 ft 498 kts 96°
2026-05-08 02:46 42.60125 31.89523 35112 ft 498 kts 95°
2026-05-08 02:46 42.59082 31.98816 35114 ft 498 kts 96°
2026-05-08 02:47 42.58045 32.08113 35114 ft 498 kts 95°
2026-05-08 02:47 42.56997 32.17343 35113 ft 499 kts 96°
2026-05-08 02:48 42.55927 32.26641 35124 ft 499 kts 96°
2026-05-08 02:48 42.54852 32.35938 35124 ft 499 kts 96°
2026-05-08 02:49 42.53770 32.45225 35136 ft 499 kts 95°
2026-05-08 02:49 42.52688 32.54442 35133 ft 498 kts 96°
2026-05-08 02:50 42.51592 32.63719 35136 ft 498 kts 95°
2026-05-08 02:50 42.50584 32.72190 35133 ft 498 kts 95°
2026-05-08 02:51 42.49476 32.81444 35129 ft 498 kts 96°
2026-05-08 02:51 42.48368 32.90627 35126 ft 497 kts 96°
2026-05-08 02:52 42.47245 32.99867 35124 ft 497 kts 96°
2026-05-08 02:52 42.46116 33.09101 35122 ft 497 kts 96°
2026-05-08 02:53 42.44980 33.18318 35117 ft 496 kts 96°
2026-05-08 02:53 42.43843 33.27471 35134 ft 496 kts 96°
2026-05-08 02:54 42.42691 33.36674 35131 ft 496 kts 96°
2026-05-08 02:54 42.41532 33.45877 35146 ft 496 kts 96°
2026-05-08 02:55 42.39787 33.59646 35138 ft 495 kts 96°
2026-05-08 02:56 42.38622 33.68748 35143 ft 494 kts 96°
2026-05-08 02:56 42.37445 33.77893 35140 ft 493 kts 96°
2026-05-08 02:57 42.36262 33.87027 35129 ft 493 kts 96°
2026-05-08 02:57 42.35075 33.96140 35130 ft 492 kts 96°
2026-05-08 02:58 42.33893 34.05193 35132 ft 492 kts 96°
2026-05-08 02:58 42.32697 34.14282 35127 ft 491 kts 96°
2026-05-08 02:59 42.31495 34.23365 35123 ft 491 kts 96°
2026-05-08 02:59 42.30286 34.32437 35118 ft 490 kts 96°
2026-05-08 03:00 42.29079 34.41440 35120 ft 490 kts 96°
2026-05-08 03:00 42.27855 34.50494 35133 ft 490 kts 97°
2026-05-08 03:01 42.26626 34.59535 35131 ft 490 kts 97°
2026-05-08 03:01 42.25389 34.68572 35129 ft 489 kts 97°
2026-05-08 03:02 42.24156 34.77530 35134 ft 489 kts 97°
2026-05-08 03:02 42.22907 34.86543 35138 ft 488 kts 97°
2026-05-08 03:03 42.21649 34.95544 35141 ft 488 kts 97°
2026-05-08 03:03 42.20385 35.04537 35141 ft 488 kts 97°
2026-05-08 03:04 42.19124 35.13460 35143 ft 487 kts 98°
2026-05-08 03:04 42.17848 35.22430 35142 ft 487 kts 98°
2026-05-08 03:05 42.16566 35.31393 35142 ft 487 kts 98°
2026-05-08 03:05 42.15279 35.40341 35143 ft 486 kts 98°
2026-05-08 03:06 42.13997 35.49207 35184 ft 485 kts 98°
2026-05-08 03:06 42.12703 35.58129 35181 ft 484 kts 98°
2026-05-08 03:07 42.11406 35.67023 35179 ft 483 kts 98°
2026-05-08 03:07 42.10104 35.75891 35184 ft 482 kts 98°
2026-05-08 03:08 42.08806 35.84682 35170 ft 482 kts 98°
2026-05-08 03:08 42.07495 35.93517 35165 ft 481 kts 98°
2026-05-08 03:09 42.06178 36.02335 35160 ft 480 kts 98°
2026-05-08 03:09 42.04858 36.11133 35169 ft 480 kts 98°
2026-05-08 03:10 42.03540 36.19862 35155 ft 479 kts 99°
2026-05-08 03:10 42.02208 36.28639 35152 ft 479 kts 99°
2026-05-08 03:11 42.00871 36.37404 35150 ft 478 kts 99°
2026-05-08 03:11 41.99528 36.46157 35150 ft 478 kts 99°
2026-05-08 03:12 41.98189 36.54845 35160 ft 478 kts 99°
2026-05-08 03:12 41.96834 36.63580 35158 ft 477 kts 99°
2026-05-08 03:13 41.95473 36.72310 35160 ft 477 kts 99°
2026-05-08 03:13 41.94108 36.81023 35168 ft 477 kts 99°
2026-05-08 03:14 41.92745 36.89678 35168 ft 477 kts 99°
2026-05-08 03:14 41.91368 36.98375 35168 ft 476 kts 99°
2026-05-08 03:15 41.90354 37.07125 35164 ft 473 kts 90°
2026-05-08 03:15 41.90231 37.15922 35162 ft 471 kts 88°
2026-05-08 03:16 41.90107 37.24663 35171 ft 472 kts 88°
2026-05-08 03:16 41.89970 37.33461 35190 ft 471 kts 88°
2026-05-08 03:17 41.89827 37.42247 35187 ft 471 kts 89°
2026-05-08 03:17 41.89678 37.51032 35184 ft 470 kts 89°
2026-05-08 03:18 41.89523 37.59747 35198 ft 470 kts 89°
2026-05-08 03:18 41.89361 37.68520 35183 ft 470 kts 89°
2026-05-08 03:19 41.89192 37.77289 35182 ft 470 kts 89°
2026-05-08 03:19 41.89017 37.86054 35182 ft 470 kts 89°
2026-05-08 03:20 41.88836 37.94753 35201 ft 469 kts 89°
2026-05-08 03:20 41.88648 38.03501 35200 ft 469 kts 89°
2026-05-08 03:21 41.88453 38.12244 35194 ft 469 kts 89°
2026-05-08 03:21 41.88251 38.20983 35191 ft 468 kts 89°
2026-05-08 03:22 41.88045 38.29653 35188 ft 468 kts 89°
2026-05-08 03:22 41.87831 38.38376 35191 ft 468 kts 89°
2026-05-08 03:23 41.87610 38.47095 35177 ft 468 kts 89°
2026-05-08 03:23 41.87382 38.55819 35184 ft 468 kts 89°
2026-05-08 03:24 41.87150 38.64484 35180 ft 468 kts 89°
2026-05-08 03:24 41.86909 38.73195 35190 ft 468 kts 89°
2026-05-08 03:25 41.86662 38.81912 35184 ft 468 kts 89°
2026-05-08 03:25 41.86408 38.90629 35187 ft 468 kts 90°
2026-05-08 03:26 41.86150 38.99291 35194 ft 468 kts 90°
2026-05-08 03:26 41.85883 39.08006 35194 ft 468 kts 90°
2026-05-08 03:27 41.85609 39.16719 35189 ft 468 kts 90°
2026-05-08 03:27 41.85330 39.25417 35188 ft 467 kts 90°
2026-05-08 03:28 41.85043 39.34142 35188 ft 468 kts 90°
2026-05-08 03:28 41.84752 39.42794 35187 ft 468 kts 90°
2026-05-08 03:29 41.84455 39.51510 35188 ft 468 kts 90°
2026-05-08 03:29 41.84149 39.60221 35188 ft 468 kts 90°
2026-05-08 03:30 41.83679 39.73218 35183 ft 468 kts 90°
2026-05-08 03:31 41.83026 39.90681 35186 ft 469 kts 90°
2026-05-08 03:32 41.82520 40.03776 35193 ft 469 kts 90°
2026-05-08 03:32 41.82177 40.12444 35196 ft 469 kts 91°
2026-05-08 03:33 41.81823 40.21188 35177 ft 470 kts 91°
2026-05-08 03:33 41.81461 40.29948 35188 ft 471 kts 91°
2026-05-08 03:34 41.81093 40.38705 35191 ft 471 kts 91°
2026-05-08 03:34 41.80720 40.47415 35194 ft 471 kts 91°
2026-05-08 03:35 41.80338 40.56187 35196 ft 472 kts 91°
2026-05-08 03:35 41.79948 40.64965 35199 ft 472 kts 91°
2026-05-08 03:36 41.79532 40.73744 35198 ft 472 kts 91°
2026-05-08 03:36 41.79101 40.82461 35203 ft 472 kts 91°
2026-05-08 03:37 41.78664 40.91243 35211 ft 472 kts 91°
2026-05-08 03:37 41.78222 41.00028 35186 ft 473 kts 92°
2026-05-08 03:38 41.77771 41.08829 35189 ft 474 kts 92°
2026-05-08 03:38 41.77316 41.17575 35183 ft 474 kts 92°
2026-05-08 03:39 41.76851 41.26387 35191 ft 474 kts 92°
2026-05-08 03:39 41.76380 41.35196 35196 ft 474 kts 92°
2026-05-08 03:40 41.75901 41.44017 35192 ft 475 kts 92°
2026-05-08 03:40 41.75417 41.52797 35197 ft 476 kts 92°
2026-05-08 03:41 41.74923 41.61634 35202 ft 476 kts 93°
2026-05-08 03:41 41.74423 41.70474 35202 ft 476 kts 93°
2026-05-08 03:42 41.73915 41.79316 35199 ft 477 kts 93°
2026-05-08 03:42 41.73403 41.88129 35185 ft 478 kts 93°
2026-05-08 03:43 41.72879 41.97010 35191 ft 479 kts 93°
2026-05-08 03:43 41.72349 42.05898 35191 ft 480 kts 94°
2026-05-08 03:44 41.71810 42.14802 35202 ft 480 kts 94°
2026-05-08 03:44 41.71268 42.23649 35193 ft 481 kts 94°
2026-05-08 03:45 41.70714 42.32568 35205 ft 481 kts 94°
2026-05-08 03:45 41.70153 42.41495 35207 ft 482 kts 94°
2026-05-08 03:46 41.69681 42.48918 35214 ft 482 kts 94°
2026-05-08 03:46 41.69013 42.59296 35215 ft 482 kts 94°
2026-05-08 03:47 41.68430 42.68240 35212 ft 483 kts 94°
2026-05-08 03:47 41.67939 42.75673 35214 ft 483 kts 94°
2026-05-08 03:48 41.67338 42.84622 35212 ft 483 kts 96°
2026-05-08 03:48 41.66057 42.94920 35218 ft 483 kts 99°
2026-05-08 03:49 41.64898 43.03771 35206 ft 484 kts 99°
2026-05-08 03:49 41.63928 43.11128 35209 ft 484 kts 99°
2026-05-08 03:50 41.62745 43.19998 35210 ft 485 kts 100°
2026-05-08 03:50 41.61359 43.30303 35220 ft 485 kts 100°
2026-05-08 03:51 41.60353 43.37741 35218 ft 485 kts 100°
2026-05-08 03:51 41.59154 43.46557 35211 ft 486 kts 100°
2026-05-08 03:52 41.57937 43.55443 35216 ft 487 kts 100°
2026-05-08 03:52 41.56712 43.64335 35217 ft 487 kts 101°
2026-05-08 03:53 41.55480 43.73232 35213 ft 488 kts 101°
2026-05-08 03:53 41.54248 43.82076 35199 ft 488 kts 101°
2026-05-08 03:54 41.52999 43.90990 35202 ft 489 kts 101°
2026-05-08 03:54 41.51742 43.99904 35194 ft 489 kts 101°
2026-05-08 03:55 41.50477 44.08820 35198 ft 489 kts 101°
2026-05-08 03:55 41.49213 44.17690 35185 ft 490 kts 102°
2026-05-08 03:56 41.47930 44.26625 35184 ft 491 kts 102°
2026-05-08 03:56 41.46640 44.35565 35189 ft 491 kts 102°
2026-05-08 03:57 41.45342 44.44509 35189 ft 492 kts 102°
2026-05-08 03:57 41.44044 44.53398 35189 ft 492 kts 102°
2026-05-08 03:58 41.42731 44.62346 35191 ft 492 kts 102°
2026-05-08 03:58 41.41410 44.71296 35192 ft 492 kts 102°
2026-05-08 03:59 41.40081 44.80242 35187 ft 492 kts 102°
2026-05-08 03:59 41.38755 44.89137 35165 ft 493 kts 103°
2026-05-08 04:00 41.37410 44.98088 35168 ft 493 kts 103°
2026-05-08 04:00 41.36030 45.07035 35171 ft 493 kts 105°
2026-05-08 04:01 41.33970 45.15709 35170 ft 492 kts 111°
2026-05-08 04:01 41.31771 45.24271 35162 ft 492 kts 111°
2026-05-08 04:02 41.29565 45.32878 35164 ft 493 kts 111°
2026-05-08 04:02 41.27337 45.41514 35167 ft 493 kts 111°
2026-05-08 04:03 41.25101 45.50143 35171 ft 494 kts 111°
2026-05-08 04:03 41.21746 45.63031 35162 ft 495 kts 112°
2026-05-08 04:04 41.19482 45.71676 35170 ft 496 kts 112°
2026-05-08 04:04 41.17204 45.80316 35172 ft 496 kts 112°
2026-05-08 04:05 41.14921 45.88955 35169 ft 496 kts 112°
2026-05-08 04:05 41.12645 45.97529 35171 ft 496 kts 113°
2026-05-08 04:06 41.10347 46.06162 35168 ft 496 kts 113°
2026-05-08 04:06 41.08043 46.14789 35161 ft 496 kts 113°
2026-05-08 04:07 41.05731 46.23413 35172 ft 497 kts 113°
2026-05-08 04:07 41.03427 46.31982 35176 ft 497 kts 113°
2026-05-08 04:08 41.01123 46.40619 35176 ft 498 kts 113°
2026-05-08 04:08 40.98813 46.49262 35179 ft 498 kts 114°
2026-05-08 04:09 40.96493 46.57892 35191 ft 498 kts 114°
2026-05-08 04:09 40.94182 46.66457 35178 ft 498 kts 114°
2026-05-08 04:10 40.91862 46.75083 35157 ft 499 kts 112°
2026-05-08 04:10 40.90841 46.84215 35159 ft 511 kts 92°
2026-05-08 04:11 40.92019 46.93554 35160 ft 518 kts 78°
2026-05-08 04:11 40.93748 47.02745 35156 ft 519 kts 79°
2026-05-08 04:12 40.95458 47.12029 35163 ft 520 kts 79°
2026-05-08 04:12 40.97163 47.21331 35171 ft 521 kts 79°
2026-05-08 04:13 40.98868 47.30663 35188 ft 522 kts 79°
2026-05-08 04:13 41.00554 47.39939 35181 ft 523 kts 79°
2026-05-08 04:14 41.02249 47.49313 35160 ft 524 kts 80°
2026-05-08 04:14 41.03940 47.58708 35165 ft 525 kts 80°
2026-05-08 04:15 41.05628 47.68140 35169 ft 526 kts 80°
2026-05-08 04:15 41.07299 47.77518 35187 ft 527 kts 80°
2026-05-08 04:16 41.08978 47.86990 35198 ft 528 kts 80°
2026-05-08 04:16 41.10655 47.96467 35199 ft 528 kts 78°
2026-05-08 04:17 41.13063 48.05705 35194 ft 531 kts 72°
2026-05-08 04:17 41.15612 48.14828 35190 ft 530 kts 72°
2026-05-08 04:18 41.18155 48.24006 35189 ft 529 kts 72°
2026-05-08 04:18 41.20690 48.33184 35181 ft 530 kts 72°
2026-05-08 04:19 41.23221 48.42373 35140 ft 530 kts 73°
2026-05-08 04:19 41.25727 48.51511 35149 ft 531 kts 73°
2026-05-08 04:20 41.28248 48.60739 35131 ft 532 kts 73°
2026-05-08 04:20 41.30768 48.69994 35139 ft 533 kts 73°
2026-05-08 04:21 41.33285 48.79272 35140 ft 534 kts 73°
2026-05-08 04:21 41.35783 48.88514 35147 ft 535 kts 73°
2026-05-08 04:22 41.38289 48.97838 35144 ft 536 kts 73°
2026-05-08 04:22 41.40796 49.07191 35148 ft 537 kts 73°
2026-05-08 04:23 41.43302 49.16564 35161 ft 538 kts 73°
2026-05-08 04:23 41.45803 49.25961 35165 ft 538 kts 73°
2026-05-08 04:24 41.48283 49.35318 35168 ft 539 kts 73°
2026-05-08 04:24 41.50771 49.44742 35169 ft 539 kts 74°
2026-05-08 04:25 41.53253 49.54182 35161 ft 539 kts 73°
2026-05-08 04:25 41.55732 49.63643 35161 ft 540 kts 74°
2026-05-08 04:26 41.58188 49.73053 35167 ft 540 kts 74°
2026-05-08 04:26 41.60653 49.82536 35154 ft 541 kts 74°
2026-05-08 04:27 41.63110 49.92028 35161 ft 541 kts 74°
2026-05-08 04:27 41.65562 50.01532 35161 ft 541 kts 74°
2026-05-08 04:28 41.67989 50.10982 35165 ft 541 kts 74°
2026-05-08 04:28 41.70426 50.20506 35159 ft 541 kts 74°
2026-05-08 04:29 41.72855 50.30037 35163 ft 541 kts 74°
2026-05-08 04:29 41.75276 50.39575 35163 ft 541 kts 74°
2026-05-08 04:30 41.77675 50.49063 35155 ft 541 kts 74°
2026-05-08 04:30 41.80077 50.58605 35155 ft 541 kts 74°
2026-05-08 04:31 41.82474 50.68160 35151 ft 541 kts 74°
2026-05-08 04:31 41.84862 50.77720 35148 ft 541 kts 74°
2026-05-08 04:32 41.87224 50.87219 35149 ft 540 kts 74°
2026-05-08 04:32 41.89596 50.96793 35147 ft 540 kts 75°
2026-05-08 04:33 41.91958 51.06364 35128 ft 540 kts 75°
2026-05-08 04:33 41.94311 51.15939 35126 ft 539 kts 75°
2026-05-08 04:34 41.96635 51.25436 35133 ft 539 kts 75°
2026-05-08 04:34 41.98967 51.35006 35132 ft 539 kts 75°
2026-05-08 04:35 42.01420 51.44530 35136 ft 540 kts 68°
2026-05-08 04:35 42.05152 51.53319 35130 ft 543 kts 57°
2026-05-08 04:36 42.09257 51.61761 35126 ft 543 kts 58°
2026-05-08 04:36 42.13368 51.70284 35134 ft 543 kts 58°
2026-05-08 04:37 42.17478 51.78815 35136 ft 542 kts 58°
2026-05-08 04:37 42.21583 51.87354 35139 ft 542 kts 58°
2026-05-08 04:38 42.25652 51.95844 35128 ft 542 kts 58°
2026-05-08 04:38 42.29739 52.04396 35119 ft 542 kts 57°
2026-05-08 04:39 42.33826 52.12971 35127 ft 543 kts 57°
2026-05-08 04:39 42.37906 52.21556 35126 ft 542 kts 58°
2026-05-08 04:40 42.41977 52.30147 35121 ft 542 kts 58°
2026-05-08 04:40 42.46012 52.38687 35121 ft 542 kts 58°
2026-05-08 04:41 42.50069 52.47298 35126 ft 542 kts 58°
2026-05-08 04:41 42.54115 52.55912 35118 ft 542 kts 58°
2026-05-08 04:42 42.58157 52.64541 35123 ft 542 kts 58°
2026-05-08 04:42 42.62163 52.73118 35126 ft 542 kts 58°
2026-05-08 04:43 42.66189 52.81763 35115 ft 542 kts 58°
2026-05-08 04:43 42.70213 52.90427 35109 ft 542 kts 58°
2026-05-08 04:44 42.74230 52.99104 35117 ft 542 kts 58°
2026-05-08 04:44 42.78213 53.07730 35106 ft 542 kts 58°
2026-05-08 04:45 42.82216 53.16427 35110 ft 542 kts 58°
2026-05-08 04:45 42.86212 53.25133 35121 ft 542 kts 58°
2026-05-08 04:46 42.90200 53.33847 35121 ft 542 kts 58°
2026-05-08 04:46 42.94155 53.42516 35122 ft 542 kts 58°
2026-05-08 04:47 42.98127 53.51251 35109 ft 541 kts 59°
2026-05-08 04:47 43.01131 53.60623 35112 ft 538 kts 77°
2026-05-08 04:48 43.02262 53.70635 35103 ft 532 kts 89°
2026-05-08 04:48 43.02941 53.80639 35103 ft 532 kts 88°
2026-05-08 04:49 43.03631 53.90699 35097 ft 532 kts 88°
2026-05-08 04:49 43.04301 54.00772 35100 ft 532 kts 88°
2026-05-08 04:50 43.04959 54.10837 35101 ft 531 kts 88°
2026-05-08 04:50 43.05602 54.20829 35102 ft 531 kts 88°
2026-05-08 04:51 43.06240 54.30891 35104 ft 531 kts 88°
2026-05-08 04:51 43.06871 54.40954 35108 ft 531 kts 88°
2026-05-08 04:52 43.07492 54.51015 35102 ft 531 kts 88°
2026-05-08 04:52 43.08100 54.61007 35094 ft 531 kts 88°
2026-05-08 04:53 43.08704 54.71083 35100 ft 531 kts 89°
2026-05-08 04:53 43.09299 54.81160 35087 ft 531 kts 89°
2026-05-08 04:54 43.09885 54.91240 35091 ft 532 kts 89°
2026-05-08 04:54 43.10459 55.01257 35097 ft 532 kts 89°
2026-05-08 04:55 43.11028 55.11342 35100 ft 532 kts 89°
2026-05-08 04:55 43.11589 55.21446 35099 ft 532 kts 89°
2026-05-08 04:56 43.12140 55.31544 35100 ft 532 kts 89°
2026-05-08 04:56 43.12679 55.41570 35100 ft 532 kts 89°
2026-05-08 04:57 43.13213 55.51674 35099 ft 532 kts 89°
2026-05-08 04:57 43.13738 55.61770 35102 ft 531 kts 89°
2026-05-08 04:58 43.14254 55.71870 35104 ft 531 kts 89°
2026-05-08 04:58 43.14757 55.81897 35108 ft 531 kts 89°
2026-05-08 04:59 43.15255 55.91991 35107 ft 531 kts 89°
2026-05-08 04:59 43.16116 56.02047 35098 ft 534 kts 78°
2026-05-08 05:00 43.18155 56.11853 35098 ft 535 kts 75°
2026-05-08 05:00 43.20207 56.21579 35100 ft 535 kts 75°
2026-05-08 05:01 43.22260 56.31382 35101 ft 535 kts 75°
2026-05-08 05:01 43.24307 56.41191 35101 ft 535 kts 75°
2026-05-08 05:02 43.26344 56.51003 35098 ft 535 kts 75°
2026-05-08 05:02 43.28361 56.60762 35099 ft 535 kts 76°
2026-05-08 05:03 43.30381 56.70582 35087 ft 534 kts 76°
2026-05-08 05:03 43.32393 56.80411 35083 ft 535 kts 76°
2026-05-08 05:04 43.34395 56.90238 35079 ft 534 kts 76°
2026-05-08 05:04 43.36377 57.00014 35081 ft 535 kts 76°
2026-05-08 05:05 43.38363 57.09863 35083 ft 535 kts 76°
2026-05-08 05:05 43.40341 57.19715 35083 ft 535 kts 76°
2026-05-08 05:06 43.42311 57.29579 35081 ft 535 kts 76°
2026-05-08 05:06 43.44260 57.39382 35078 ft 535 kts 76°
2026-05-08 05:07 43.46212 57.49253 35081 ft 535 kts 76°
2026-05-08 05:07 43.48156 57.59130 35081 ft 535 kts 76°
2026-05-08 05:08 43.50093 57.69020 35090 ft 535 kts 76°
2026-05-08 05:08 43.52020 57.78916 35076 ft 535 kts 76°
2026-05-08 05:09 43.53927 57.88751 35083 ft 535 kts 76°
2026-05-08 05:09 43.55836 57.98651 35082 ft 535 kts 76°
2026-05-08 05:10 43.58686 58.13526 35076 ft 535 kts 77°
2026-05-08 05:11 43.60575 58.23448 35076 ft 534 kts 77°
2026-05-08 05:11 43.62443 58.33302 35068 ft 534 kts 77°
2026-05-08 05:12 43.64301 58.43231 35046 ft 534 kts 77°
2026-05-08 05:12 43.66118 58.53175 35057 ft 534 kts 77°
2026-05-08 05:13 43.67931 58.63122 35055 ft 534 kts 77°
2026-05-08 05:13 43.69727 58.73004 35052 ft 534 kts 77°
2026-05-08 05:14 43.71527 58.82961 35054 ft 534 kts 77°
2026-05-08 05:14 43.73320 58.92933 35053 ft 534 kts 77°
2026-05-08 05:15 43.75105 59.02909 35052 ft 535 kts 77°
2026-05-08 05:15 43.76903 59.12817 35057 ft 535 kts 77°
2026-05-08 05:16 43.78734 59.22796 35060 ft 535 kts 77°
2026-05-08 05:16 43.80548 59.32779 35062 ft 535 kts 77°
2026-05-08 05:17 43.82350 59.42767 35061 ft 535 kts 77°
2026-05-08 05:17 43.84130 59.52689 35062 ft 535 kts 77°
2026-05-08 05:18 43.85914 59.62687 35058 ft 534 kts 77°
2026-05-08 05:18 43.87687 59.72687 35067 ft 534 kts 78°
2026-05-08 05:19 43.89413 59.82697 35061 ft 534 kts 78°
2026-05-08 05:19 43.91115 59.92644 35063 ft 534 kts 78°
2026-05-08 05:20 43.92824 60.02659 35059 ft 533 kts 78°
2026-05-08 05:20 43.94524 60.12672 35060 ft 533 kts 78°
2026-05-08 05:21 43.96214 60.22681 35031 ft 533 kts 78°
2026-05-08 05:21 43.97883 60.32628 35052 ft 533 kts 78°
2026-05-08 05:22 43.99554 60.42646 35054 ft 532 kts 78°
2026-05-08 05:22 44.01218 60.52674 35056 ft 533 kts 78°
2026-05-08 05:23 44.02871 60.62697 35057 ft 533 kts 79°
2026-05-08 05:23 44.04506 60.72669 35062 ft 533 kts 79°
2026-05-08 05:24 44.06143 60.82710 35061 ft 532 kts 79°
2026-05-08 05:24 44.07770 60.92754 35061 ft 533 kts 79°
2026-05-08 05:25 44.09389 61.02804 35052 ft 533 kts 79°
2026-05-08 05:25 44.10988 61.12790 35060 ft 532 kts 79°
2026-05-08 05:26 44.12588 61.22845 35057 ft 532 kts 79°
2026-05-08 05:26 44.14060 61.32934 35054 ft 531 kts 85°
2026-05-08 05:27 44.14592 61.43142 35057 ft 529 kts 89°
2026-05-08 05:27 44.15043 61.53292 35057 ft 529 kts 89°
2026-05-08 05:28 44.15489 61.63507 35055 ft 529 kts 89°
2026-05-08 05:28 44.15924 61.73719 35040 ft 528 kts 89°
2026-05-08 05:29 44.16351 61.83944 35040 ft 529 kts 89°
2026-05-08 05:29 44.16765 61.94099 35042 ft 529 kts 89°
2026-05-08 05:30 44.17172 62.04329 35045 ft 529 kts 89°
2026-05-08 05:30 44.17571 62.14570 35041 ft 530 kts 89°
2026-05-08 05:31 44.17960 62.24816 35055 ft 529 kts 89°
2026-05-08 05:31 44.18335 62.34984 35054 ft 529 kts 90°
2026-05-08 05:32 44.18689 62.45231 35055 ft 529 kts 90°
2026-05-08 05:32 44.19034 62.55474 35055 ft 529 kts 90°
2026-05-08 05:33 44.19371 62.65725 35052 ft 529 kts 90°
2026-05-08 05:33 44.19697 62.75897 35049 ft 529 kts 90°
2026-05-08 05:34 44.20016 62.86137 35052 ft 529 kts 90°
2026-05-08 05:34 44.20326 62.96392 35051 ft 529 kts 90°
2026-05-08 05:35 44.20627 63.06632 35062 ft 529 kts 90°
2026-05-08 05:35 44.20918 63.16878 35059 ft 529 kts 90°
2026-05-08 05:36 44.21094 63.27035 35058 ft 528 kts 92°
2026-05-08 05:36 44.21193 63.37268 35055 ft 528 kts 92°
2026-05-08 05:37 44.21301 63.47491 35054 ft 527 kts 91°
2026-05-08 05:37 44.21410 63.57706 35047 ft 526 kts 91°
2026-05-08 05:38 44.21509 63.67832 35037 ft 526 kts 91°
2026-05-08 05:38 44.21601 63.78030 35037 ft 526 kts 92°
2026-05-08 05:39 44.21683 63.88222 35036 ft 525 kts 92°
2026-05-08 05:39 44.21755 63.98410 35033 ft 525 kts 92°
2026-05-08 05:40 44.21818 64.08512 35032 ft 525 kts 92°
2026-05-08 05:40 44.21875 64.18685 35032 ft 525 kts 91°
2026-05-08 05:41 44.22308 64.28850 35041 ft 525 kts 88°
2026-05-08 05:41 44.22850 64.39004 35030 ft 525 kts 88°
2026-05-08 05:42 44.23322 64.49089 35016 ft 524 kts 89°
2026-05-08 05:42 44.23767 64.59240 35016 ft 524 kts 89°
2026-05-08 05:43 44.24200 64.69377 35014 ft 524 kts 89°
2026-05-08 05:43 44.24625 64.79505 35016 ft 523 kts 89°
2026-05-08 05:44 44.25024 64.89567 35013 ft 523 kts 89°
2026-05-08 05:44 44.25397 64.99688 35001 ft 522 kts 89°
2026-05-08 05:45 44.25764 65.09800 35018 ft 521 kts 89°
2026-05-08 05:45 44.26124 65.19894 35009 ft 521 kts 89°
2026-05-08 05:46 44.26472 65.29920 34999 ft 521 kts 89°
2026-05-08 05:46 44.26813 65.40008 34994 ft 520 kts 89°
2026-05-08 05:47 44.27145 65.50071 34974 ft 519 kts 89°
2026-05-08 05:47 44.27467 65.60116 34988 ft 518 kts 89°
2026-05-08 05:48 44.27778 65.70084 34978 ft 517 kts 90°
2026-05-08 05:48 44.28082 65.80117 34980 ft 517 kts 90°
2026-05-08 05:49 44.28377 65.90127 34978 ft 516 kts 90°
2026-05-08 05:49 44.28663 66.00137 34977 ft 516 kts 90°
2026-05-08 05:50 44.28939 66.10122 34967 ft 515 kts 90°
2026-05-08 05:50 44.29205 66.20050 34972 ft 515 kts 90°
2026-05-08 05:51 44.29464 66.30021 34974 ft 514 kts 90°
2026-05-08 05:51 44.29715 66.39979 34960 ft 513 kts 90°
2026-05-08 05:52 44.29893 66.49917 34952 ft 512 kts 92°
2026-05-08 05:52 44.29941 66.59778 34943 ft 511 kts 91°
2026-05-08 05:53 44.29997 66.69685 34944 ft 510 kts 91°
2026-05-08 05:53 44.30057 66.79589 34931 ft 510 kts 91°
2026-05-08 05:54 44.30111 66.89482 34926 ft 510 kts 91°
2026-05-08 05:54 44.30157 66.99311 34928 ft 510 kts 92°
2026-05-08 05:55 44.30194 67.09210 34935 ft 509 kts 92°
2026-05-08 05:55 44.30222 67.19096 34939 ft 509 kts 92°
2026-05-08 05:56 44.30242 67.28982 34940 ft 509 kts 92°
2026-05-08 05:56 44.30253 67.38802 34953 ft 509 kts 92°
2026-05-08 05:57 44.30256 67.48690 34958 ft 509 kts 92°
2026-05-08 05:57 44.30558 67.58555 34961 ft 509 kts 87°
2026-05-08 05:58 44.31111 67.68423 34973 ft 509 kts 87°
2026-05-08 05:58 44.31638 67.78202 34961 ft 508 kts 87°
2026-05-08 05:59 44.32155 67.88050 34954 ft 508 kts 88°
2026-05-08 05:59 44.32663 67.97886 34952 ft 509 kts 88°
2026-05-08 06:00 44.33163 68.07753 34956 ft 509 kts 88°
2026-05-08 06:00 44.33652 68.17541 34954 ft 509 kts 88°
2026-05-08 06:01 44.34135 68.27404 34962 ft 509 kts 88°
2026-05-08 06:01 44.34609 68.37245 34959 ft 509 kts 88°
2026-05-08 06:02 44.35077 68.47129 34956 ft 509 kts 88°
2026-05-08 06:02 44.35531 68.56926 34961 ft 509 kts 88°
2026-05-08 06:03 44.35981 68.66801 34943 ft 509 kts 88°
2026-05-08 06:03 44.36421 68.76644 34943 ft 510 kts 88°
2026-05-08 06:04 44.36855 68.86556 34955 ft 509 kts 88°
2026-05-08 06:04 44.36827 68.96360 34957 ft 507 kts 96°
2026-05-08 06:05 44.36332 69.06191 34967 ft 507 kts 95°
2026-05-08 06:05 44.35863 69.15984 34968 ft 507 kts 96°
2026-05-08 06:06 44.35375 69.25848 34973 ft 507 kts 96°
2026-05-08 06:06 44.34881 69.35602 34973 ft 507 kts 96°
2026-05-08 06:07 44.34374 69.45432 34974 ft 507 kts 96°
2026-05-08 06:07 44.33859 69.55245 34976 ft 507 kts 96°
2026-05-08 06:08 44.33337 69.65060 34977 ft 506 kts 96°
2026-05-08 06:08 44.32810 69.74771 34978 ft 506 kts 96°
2026-05-08 06:09 44.32270 69.84583 34979 ft 505 kts 96°
2026-05-08 06:09 44.31724 69.94361 34975 ft 505 kts 96°
2026-05-08 06:10 44.31170 70.04127 34977 ft 505 kts 96°
2026-05-08 06:10 44.30609 70.13879 34978 ft 504 kts 96°
2026-05-08 06:11 44.30042 70.23573 34978 ft 504 kts 96°
2026-05-08 06:11 44.29465 70.33316 34987 ft 503 kts 96°
2026-05-08 06:12 44.28873 70.43045 34982 ft 503 kts 96°
2026-05-08 06:12 44.28271 70.52764 34962 ft 502 kts 96°
2026-05-08 06:13 44.27668 70.62402 34974 ft 502 kts 96°
2026-05-08 06:13 44.27053 70.72099 34973 ft 502 kts 96°
2026-05-08 06:14 44.26429 70.81797 34969 ft 502 kts 96°
2026-05-08 06:14 44.25798 70.91485 34969 ft 502 kts 96°
2026-05-08 06:15 44.25163 71.01103 34969 ft 502 kts 96°
2026-05-08 06:15 44.24516 71.10785 34983 ft 501 kts 96°
2026-05-08 06:16 44.23861 71.20451 34984 ft 501 kts 96°
2026-05-08 06:16 44.23198 71.30114 34982 ft 500 kts 97°
2026-05-08 06:17 44.22203 71.44522 34971 ft 500 kts 96°
2026-05-08 06:17 44.21557 71.54171 34981 ft 499 kts 97°
2026-05-08 06:18 44.20905 71.63802 34977 ft 499 kts 97°
2026-05-08 06:18 44.20241 71.73425 34977 ft 499 kts 97°
2026-05-08 06:19 44.19574 71.82978 34977 ft 499 kts 97°
2026-05-08 06:19 44.18893 71.92591 34986 ft 498 kts 97°
2026-05-08 06:20 44.18207 72.02178 34985 ft 497 kts 97°
2026-05-08 06:20 44.17512 72.11763 34981 ft 497 kts 97°
2026-05-08 06:21 44.16815 72.21274 34984 ft 496 kts 97°
2026-05-08 06:21 44.16106 72.30831 34983 ft 496 kts 97°
2026-05-08 06:22 44.15390 72.40376 34984 ft 496 kts 97°
2026-05-08 06:22 44.14666 72.49921 34982 ft 495 kts 97°
2026-05-08 06:23 44.13939 72.59393 34979 ft 495 kts 97°
2026-05-08 06:23 44.13200 72.68925 34980 ft 495 kts 97°
2026-05-08 06:24 44.12452 72.78449 34983 ft 495 kts 97°
2026-05-08 06:24 44.11698 72.87959 34983 ft 495 kts 97°
2026-05-08 06:25 44.10942 72.97415 34984 ft 495 kts 97°
2026-05-08 06:25 44.10164 73.06914 34986 ft 494 kts 97°
2026-05-08 06:26 44.09375 73.16403 34996 ft 493 kts 97°
2026-05-08 06:26 44.08582 73.25880 34988 ft 493 kts 97°
2026-05-08 06:27 44.07782 73.35350 34992 ft 493 kts 97°
2026-05-08 06:27 44.06979 73.44752 34988 ft 493 kts 97°
2026-05-08 06:28 44.06164 73.54202 34990 ft 493 kts 97°
2026-05-08 06:28 44.05340 73.63658 34991 ft 492 kts 97°
2026-05-08 06:29 44.04510 73.73104 34998 ft 492 kts 97°
2026-05-08 06:29 44.03677 73.82479 34996 ft 492 kts 97°
2026-05-08 06:30 44.02832 73.91910 35001 ft 492 kts 98°
2026-05-08 06:30 44.01979 74.01336 35014 ft 492 kts 98°
2026-05-08 06:31 44.01119 74.10759 35014 ft 491 kts 98°
2026-05-08 06:31 44.00257 74.20106 35022 ft 491 kts 98°
2026-05-08 06:32 43.99381 74.29523 35023 ft 491 kts 98°
2026-05-08 06:32 43.98499 74.38930 35030 ft 491 kts 98°
2026-05-08 06:33 43.97609 74.48328 35022 ft 491 kts 98°
2026-05-08 06:33 43.96755 74.57666 35016 ft 491 kts 97°
2026-05-08 06:34 43.95951 74.67074 35013 ft 490 kts 97°
2026-05-08 06:34 43.95132 74.76459 35020 ft 490 kts 97°
2026-05-08 06:35 43.94298 74.85849 35008 ft 490 kts 98°
2026-05-08 06:35 43.93461 74.95165 35011 ft 490 kts 98°
2026-05-08 06:36 43.92611 75.04544 35010 ft 490 kts 98°
2026-05-08 06:36 43.91754 75.13912 35007 ft 490 kts 98°
2026-05-08 06:37 43.90889 75.23273 35001 ft 489 kts 98°
2026-05-08 06:37 43.90023 75.32569 35001 ft 489 kts 98°
2026-05-08 06:38 43.89144 75.41927 35000 ft 489 kts 98°
2026-05-08 06:38 43.88257 75.51276 34977 ft 489 kts 98°
2026-05-08 06:39 43.87363 75.60620 34988 ft 489 kts 98°
2026-05-08 06:39 43.86468 75.69892 34986 ft 489 kts 98°
2026-05-08 06:40 43.85558 75.79231 34988 ft 489 kts 98°
2026-05-08 06:40 43.84640 75.88572 34978 ft 489 kts 98°
2026-05-08 06:41 43.83717 75.97901 34978 ft 489 kts 98°
2026-05-08 06:41 43.82726 76.07155 34982 ft 489 kts 100°
2026-05-08 06:42 43.81603 76.16440 34981 ft 489 kts 100°
2026-05-08 06:42 43.80488 76.25731 34988 ft 489 kts 99°
2026-05-08 06:43 43.79380 76.35014 34978 ft 489 kts 99°
2026-05-08 06:43 43.78274 76.44230 34991 ft 489 kts 99°
2026-05-08 06:44 43.77152 76.53509 34985 ft 489 kts 99°
2026-05-08 06:44 43.76023 76.62784 34982 ft 489 kts 99°
2026-05-08 06:45 43.74887 76.72052 34996 ft 489 kts 99°
2026-05-08 06:45 43.73751 76.81253 34996 ft 489 kts 99°
2026-05-08 06:46 43.72599 76.90515 34992 ft 489 kts 99°
2026-05-08 06:46 43.71440 76.99775 34991 ft 489 kts 99°
2026-05-08 06:47 43.70274 77.09028 34993 ft 489 kts 100°
2026-05-08 06:47 43.69299 77.16721 34992 ft 489 kts 99°
2026-05-08 06:48 43.67924 77.27461 35004 ft 489 kts 99°
2026-05-08 06:48 43.66728 77.36703 35006 ft 489 kts 99°
2026-05-08 06:49 43.65527 77.45941 35007 ft 489 kts 99°
2026-05-08 06:49 43.64522 77.53616 35010 ft 489 kts 99°
2026-05-08 06:50 43.63109 77.64345 35009 ft 489 kts 99°
2026-05-08 06:50 43.61886 77.73572 35005 ft 489 kts 100°
2026-05-08 06:51 43.60862 77.81246 35004 ft 489 kts 100°
2026-05-08 06:51 43.59624 77.90474 35012 ft 489 kts 100°
2026-05-08 06:52 43.58174 78.01201 35020 ft 490 kts 100°
2026-05-08 06:52 43.57399 78.08927 35019 ft 489 kts 92°
2026-05-08 06:53 43.57251 78.18297 35018 ft 489 kts 90°
2026-05-08 06:53 43.57089 78.27682 35003 ft 490 kts 91°
2026-05-08 06:54 43.56915 78.37067 35004 ft 490 kts 91°
2026-05-08 06:54 43.56734 78.46464 35007 ft 490 kts 91°
2026-05-08 06:55 43.56546 78.55794 35018 ft 490 kts 91°
2026-05-08 06:55 43.56350 78.65193 35014 ft 491 kts 91°
2026-05-08 06:56 43.56146 78.74601 35011 ft 491 kts 91°
2026-05-08 06:56 43.55934 78.84025 35009 ft 492 kts 91°
2026-05-08 06:57 43.55716 78.93382 35010 ft 492 kts 91°
2026-05-08 06:57 43.55488 79.02816 35016 ft 492 kts 91°
2026-05-08 06:58 43.55252 79.12233 35027 ft 491 kts 91°
2026-05-08 06:58 43.55009 79.21637 35028 ft 491 kts 91°
2026-05-08 06:59 43.54762 79.30971 35027 ft 490 kts 91°
2026-05-08 06:59 43.54503 79.40360 35028 ft 490 kts 91°
2026-05-08 07:00 43.54238 79.49723 35043 ft 489 kts 90°
2026-05-08 07:00 43.53966 79.59071 35050 ft 487 kts 90°
2026-05-08 07:01 43.53689 79.68324 35039 ft 486 kts 91°
2026-05-08 07:01 43.53404 79.77621 35031 ft 485 kts 91°
2026-05-08 07:02 43.53111 79.86884 35065 ft 484 kts 91°
2026-05-08 07:02 43.52813 79.96142 35056 ft 483 kts 91°
2026-05-08 07:03 43.52510 80.05306 35050 ft 482 kts 91°
2026-05-08 07:03 43.52198 80.14516 35042 ft 481 kts 91°
2026-05-08 07:04 43.51878 80.23724 35049 ft 481 kts 91°
2026-05-08 07:04 43.51555 80.32828 35048 ft 480 kts 91°
2026-05-08 07:05 43.51222 80.42009 35041 ft 480 kts 91°
2026-05-08 07:05 43.50884 80.51127 35068 ft 480 kts 91°
2026-05-08 07:06 43.50536 80.60306 35062 ft 480 kts 91°
2026-05-08 07:06 43.50181 80.69488 35066 ft 480 kts 91°
2026-05-08 07:07 43.49883 80.78676 35067 ft 480 kts 89°
2026-05-08 07:07 43.49794 80.87811 35070 ft 480 kts 89°
2026-05-08 07:08 43.49684 80.97010 35066 ft 481 kts 89°
2026-05-08 07:08 43.49541 81.06236 35068 ft 482 kts 89°
2026-05-08 07:09 43.49386 81.15463 35069 ft 482 kts 89°
2026-05-08 07:09 43.49225 81.24640 35082 ft 482 kts 89°
2026-05-08 07:10 43.49056 81.33876 35079 ft 483 kts 89°
2026-05-08 07:10 43.48878 81.43130 35068 ft 484 kts 89°
2026-05-08 07:11 43.48693 81.52390 35059 ft 484 kts 89°